| time (UTC) | temp F | wind direction | speed MPH | gust MPH | rain 1hr in | rain 24hr in | rain mn in | humidity % | barometer mb |
| 20260504033038 | 61 | 360 | 17.0 | 23.0 | 0.00 | 0.00 | 0.00 | 22 | 920.3 |
| 20260504032512 | 62 | 360 | 17.0 | 22.0 | 0.00 | 0.00 | 0.00 | 21 | 920.2 |
| 20260504032012 | 62 | 360 | 15.0 | 20.0 | 0.00 | 0.00 | 0.00 | 20 | 920.2 |
| 20260504031533 | 63 | 360 | 14.0 | 19.0 | 0.00 | 0.00 | 0.00 | 18 | 920.2 |
| 20260504031012 | 63 | 360 | 11.0 | 18.0 | 0.00 | 0.00 | 0.00 | 16 | 920.0 |
| 20260504030511 | 64 | 360 | 13.0 | 23.0 | 0.00 | 0.00 | 0.00 | 15 | 919.9 |
| 20260504030033 | 64 | 360 | 17.0 | 23.0 | 0.00 | 0.00 | 0.00 | 14 | 919.5 |
| 20260504025510 | 66 | 360 | 5.0 | 10.0 | 0.00 | 0.00 | 0.00 | 12 | 919.5 |
| 20260504025011 | 67 | 360 | 4.0 | 6.0 | 0.00 | 0.00 | 0.00 | 11 | 919.3 |
| 20260504024541 | 68 | 360 | 2.0 | 12.0 | 0.00 | 0.00 | 0.00 | 12 | 919.3 |
| 20260504024011 | 67 | 360 | 8.0 | 12.0 | 0.00 | 0.00 | 0.00 | 12 | 919.3 |
| 20260504023511 | 68 | 360 | 6.0 | 9.0 | 0.00 | 0.00 | 0.00 | 12 | 919.3 |
| 20260504023035 | 68 | 360 | 6.0 | 10.0 | 0.00 | 0.00 | 0.00 | 12 | 919.2 |
| 20260504022516 | 69 | 360 | 7.0 | 12.0 | 0.00 | 0.00 | 0.00 | 12 | 919.4 |
| 20260504022013 | 70 | 360 | 8.0 | 17.0 | 0.00 | 0.00 | 0.00 | 12 | 919.4 |
| 20260504021537 | 70 | 360 | 11.0 | 18.0 | 0.00 | 0.00 | 0.00 | 11 | 919.3 |
| 20260504021012 | 71 | 360 | 15.0 | 18.0 | 0.00 | 0.00 | 0.00 | 11 | 919.3 |
| 20260504020511 | 71 | 360 | 14.0 | 18.0 | 0.00 | 0.00 | 0.00 | 11 | 919.1 |
| 20260504020035 | 72 | 360 | 11.0 | 16.0 | 0.00 | 0.00 | 0.00 | 11 | 919.1 |
| 20260504015513 | 72 | 360 | 10.0 | 19.0 | 0.00 | 0.00 | 0.00 | 10 | 918.9 |
| 20260504015017 | 72 | 360 | 11.0 | 19.0 | 0.00 | 0.00 | 0.00 | 10 | 919.0 |
| 20260504014538 | 72 | 360 | 16.0 | 19.0 | 0.00 | 0.00 | 0.00 | 10 | 919.1 |
| 20260504014017 | 73 | 360 | 14.0 | 16.0 | 0.00 | 0.00 | 0.00 | 8 | 918.9 |
| 20260504013510 | 73 | 360 | 12.0 | 16.0 | 0.00 | 0.00 | 0.00 | 8 | 919.0 |
| 20260504013040 | 73 | 360 | 12.0 | 20.0 | 0.00 | 0.00 | 0.00 | 8 | 919.1 |
| 20260504012511 | 73 | 360 | 13.0 | 17.0 | 0.00 | 0.00 | 0.00 | 8 | 919.2 |
| 20260504012015 | 74 | 360 | 12.0 | 16.0 | 0.00 | 0.00 | 0.00 | 8 | 919.2 |
| 20260504011535 | 74 | 360 | 13.0 | 20.0 | 0.00 | 0.00 | 0.00 | 7 | 919.2 |
| 20260504011013 | 74 | 360 | 16.0 | 22.0 | 0.00 | 0.00 | 0.00 | 7 | 919.1 |
| 20260504010510 | 74 | 360 | 12.0 | 20.0 | 0.00 | 0.00 | 0.00 | 7 | 919.2 |
| 20260504010037 | 74 | 360 | 14.0 | 21.0 | 0.00 | 0.00 | 0.00 | 6 | 918.9 |
| 20260504005514 | 75 | 360 | 17.0 | 21.0 | 0.00 | 0.00 | 0.00 | 6 | 919.1 |
| 20260504005011 | 74 | 360 | 12.0 | 18.0 | 0.00 | 0.00 | 0.00 | 6 | 919.1 |
| 20260504004535 | 75 | 360 | 12.0 | 21.0 | 0.00 | 0.00 | 0.00 | 6 | 919.3 |
| 20260504004013 | 75 | 360 | 13.0 | 21.0 | 0.00 | 0.00 | 0.00 | 6 | 919.3 |
| 20260504003513 | 75 | 360 | 15.0 | 20.0 | 0.00 | 0.00 | 0.00 | 6 | 919.4 |
| 20260504003041 | 75 | 360 | 5.0 | 19.0 | 0.00 | 0.00 | 0.00 | 6 | 919.4 |
| 20260504002511 | 75 | 360 | 10.0 | 19.0 | 0.00 | 0.00 | 0.00 | 6 | 919.5 |
| 20260504002012 | 75 | 360 | 12.0 | 24.0 | 0.00 | 0.00 | 0.00 | 6 | 919.6 |
| 20260504001536 | 75 | 360 | 15.0 | 27.0 | 0.00 | 0.00 | 0.00 | 6 | 919.5 |
| 20260504001014 | 76 | 360 | 16.0 | 22.0 | 0.00 | 0.00 | 0.00 | 5 | 919.4 |
| 20260504000511 | 75 | 360 | 13.0 | 21.0 | 0.00 | 0.00 | 0.00 | 5 | 919.6 |
| 20260504000042 | 75 | 360 | 15.0 | 21.0 | 0.00 | 0.00 | 0.00 | 5 | 919.4 |
| 20260503235511 | 75 | 360 | 10.0 | 23.0 | 0.00 | 0.00 | 0.00 | 5 | 919.7 |
| 20260503235012 | 75 | 360 | 12.0 | 23.0 | 0.00 | 0.00 | 0.00 | 5 | 919.8 |
| 20260503234538 | 75 | 360 | 16.0 | 22.0 | 0.00 | 0.00 | 0.00 | 4 | 919.8 |
| 20260503234012 | 75 | 360 | 10.0 | 24.0 | 0.00 | 0.00 | 0.00 | 4 | 919.9 |
| 20260503233512 | 75 | 360 | 18.0 | 24.0 | 0.00 | 0.00 | 0.00 | 4 | 919.8 |
| 20260503233039 | 75 | 360 | 16.0 | 25.0 | 0.00 | 0.00 | 0.00 | 4 | 919.8 |
| 20260503232511 | 75 | 360 | 15.0 | 22.0 | 0.00 | 0.00 | 0.00 | 4 | 919.7 |
| 20260503232014 | 75 | 360 | 19.0 | 22.0 | 0.00 | 0.00 | 0.00 | 5 | 919.6 |
| 20260503231535 | 75 | 360 | 7.0 | 12.0 | 0.00 | 0.00 | 0.00 | 5 | 919.7 |
| 20260503231015 | 75 | 360 | 5.0 | 14.0 | 0.00 | 0.00 | 0.00 | 4 | 920.0 |
| 20260503230512 | 75 | 360 | 5.0 | 23.0 | 0.00 | 0.00 | 0.00 | 4 | 920.1 |
| 20260503230032 | 76 | 360 | 13.0 | 23.0 | 0.00 | 0.00 | 0.00 | 4 | 920.0 |
| 20260503225512 | 75 | 360 | 16.0 | 28.0 | 0.00 | 0.00 | 0.00 | 5 | 920.2 |
| 20260503225016 | 75 | 360 | 21.0 | 28.0 | 0.00 | 0.00 | 0.00 | 5 | 920.0 |
| 20260503224542 | 75 | 360 | 13.0 | 21.0 | 0.00 | 0.00 | 0.00 | 5 | 920.2 |
| 20260503224015 | 75 | 360 | 13.0 | 17.0 | 0.00 | 0.00 | 0.00 | 5 | 920.2 |
| 20260503223516 | 75 | 360 | 11.0 | 17.0 | 0.00 | 0.00 | 0.00 | 6 | 920.2 |
| 20260503223038 | 74 | 360 | 9.0 | 24.0 | 0.00 | 0.00 | 0.00 | 6 | 920.5 |
| 20260503222514 | 74 | 360 | 17.0 | 28.0 | 0.00 | 0.00 | 0.00 | 6 | 920.4 |
| 20260503222013 | 75 | 360 | 16.0 | 26.0 | 0.00 | 0.00 | 0.00 | 7 | 920.3 |
| 20260503221540 | 75 | 360 | 18.0 | 26.0 | 0.00 | 0.00 | 0.00 | 6 | 920.4 |
| 20260503221012 | 75 | 360 | 12.0 | 20.0 | 0.00 | 0.00 | 0.00 | 7 | 920.5 |
| 20260503220513 | 74 | 360 | 12.0 | 25.0 | 0.00 | 0.00 | 0.00 | 6 | 920.6 |
| 20260503220039 | 75 | 360 | 17.0 | 25.0 | 0.00 | 0.00 | 0.00 | 6 | 920.6 |
| 20260503215511 | 74 | 360 | 10.0 | 21.0 | 0.00 | 0.00 | 0.00 | 7 | 920.7 |
| 20260503215013 | 74 | 360 | 9.0 | 25.0 | 0.00 | 0.00 | 0.00 | 7 | 920.8 |
| 20260503214533 | 74 | 360 | 19.0 | 25.0 | 0.00 | 0.00 | 0.00 | 7 | 920.5 |
| 20260503214014 | 74 | 360 | 17.0 | 26.0 | 0.00 | 0.00 | 0.00 | 6 | 920.8 |
| 20260503213513 | 74 | 360 | 14.0 | 25.0 | 0.00 | 0.00 | 0.00 | 6 | 920.9 |
| 20260503213048 | 74 | 360 | 16.0 | 26.0 | 0.00 | 0.00 | 0.00 | 6 | 920.9 |
| 20260503212515 | 74 | 360 | 17.0 | 28.0 | 0.00 | 0.00 | 0.00 | 6 | 921.1 |
| 20260503212015 | 74 | 360 | 15.0 | 28.0 | 0.00 | 0.00 | 0.00 | 6 | 921.3 |
| 20260503211541 | 74 | 360 | 14.0 | 22.0 | 0.00 | 0.00 | 0.00 | 6 | 921.6 |
| 20260503211013 | 74 | 360 | 5.0 | 18.0 | 0.00 | 0.00 | 0.00 | 6 | 921.7 |
| 20260503210515 | 75 | 360 | 11.0 | 18.0 | 0.00 | 0.00 | 0.00 | 6 | 921.6 |
| 20260503210037 | 74 | 360 | 7.0 | 17.0 | 0.00 | 0.00 | 0.00 | 7 | 921.7 |
| 20260503205512 | 74 | 360 | 11.0 | 17.0 | 0.00 | 0.00 | 0.00 | 6 | 921.8 |
| 20260503205014 | 73 | 360 | 8.0 | 22.0 | 0.00 | 0.00 | 0.00 | 7 | 921.8 |
| 20260503204546 | 73 | 360 | 12.0 | 22.0 | 0.00 | 0.00 | 0.00 | 7 | 921.9 |
| 20260503204013 | 73 | 360 | 14.0 | 22.0 | 0.00 | 0.00 | 0.00 | 6 | 921.9 |
| 20260503203515 | 72 | 360 | 13.0 | 22.0 | 0.00 | 0.00 | 0.00 | 6 | 921.9 |
| 20260503203045 | 72 | 360 | 9.0 | 22.0 | 0.00 | 0.00 | 0.00 | 5 | 922.1 |
| 20260503202514 | 72 | 360 | 13.0 | 19.0 | 0.00 | 0.00 | 0.00 | 6 | 922.2 |
| 20260503202014 | 72 | 360 | 8.0 | 16.0 | 0.00 | 0.00 | 0.00 | 7 | 922.2 |
| 20260503201544 | 72 | 360 | 9.0 | 21.0 | 0.00 | 0.00 | 0.00 | 7 | 922.3 |
| 20260503201018 | 73 | 360 | 11.0 | 22.0 | 0.00 | 0.00 | 0.00 | 7 | 922.2 |
| 20260503200514 | 72 | 360 | 14.0 | 23.0 | 0.00 | 0.00 | 0.00 | 6 | 922.2 |
| 20260503200049 | 72 | 360 | 12.0 | 23.0 | 0.00 | 0.00 | 0.00 | 7 | 922.3 |
| 20260503195514 | 71 | 360 | 11.0 | 24.0 | 0.00 | 0.00 | 0.00 | 7 | 922.4 |
| 20260503195014 | 72 | 360 | 17.0 | 24.0 | 0.00 | 0.00 | 0.00 | 6 | 922.4 |
| 20260503194553 | 71 | 360 | 9.0 | 25.0 | 0.00 | 0.00 | 0.00 | 8 | 922.5 |
| 20260503194015 | 71 | 360 | 17.0 | 25.0 | 0.00 | 0.00 | 0.00 | 8 | 922.5 |
| 20260503193514 | 70 | 360 | 13.0 | 21.0 | 0.00 | 0.00 | 0.00 | 8 | 922.9 |
| 20260503193050 | 70 | 360 | 13.0 | 22.0 | 0.00 | 0.00 | 0.00 | 8 | 923.0 |
| 20260503192515 | 71 | 360 | 12.0 | 23.0 | 0.00 | 0.00 | 0.00 | 8 | 923.1 |
| 20260503192014 | 71 | 360 | 17.0 | 23.0 | 0.00 | 0.00 | 0.00 | 7 | 923.2 |
| 20260503191544 | 70 | 360 | 16.0 | 23.0 | 0.00 | 0.00 | 0.00 | 8 | 923.3 |
| 20260503191013 | 70 | 360 | 9.0 | 21.0 | 0.00 | 0.00 | 0.00 | 8 | 923.4 |
| 20260503190514 | 69 | 360 | 12.0 | 16.0 | 0.00 | 0.00 | 0.00 | 9 | 923.3 |
| 20260503190038 | 69 | 360 | 10.0 | 24.0 | 0.00 | 0.00 | 0.00 | 9 | 923.4 |
| 20260503185515 | 69 | 360 | 14.0 | 24.0 | 0.00 | 0.00 | 0.00 | 9 | 923.4 |
| 20260503185015 | 69 | 360 | 15.0 | 21.0 | 0.00 | 0.00 | 0.00 | 10 | 923.3 |
| 20260503184603 | 68 | 360 | 11.0 | 17.0 | 0.00 | 0.00 | 0.00 | 10 | 923.3 |
| 20260503184015 | 69 | 360 | 10.0 | 18.0 | 0.00 | 0.00 | 0.00 | 8 | 923.6 |
| 20260503183515 | 69 | 360 | 10.0 | 19.0 | 0.00 | 0.00 | 0.00 | 9 | 923.4 |
| 20260503183059 | 68 | 360 | 10.0 | 16.0 | 0.00 | 0.00 | 0.00 | 10 | 923.5 |
| 20260503182512 | 68 | 360 | 6.0 | 18.0 | 0.00 | 0.00 | 0.00 | 11 | 923.8 |
| 20260503182014 | 68 | 360 | 12.0 | 18.0 | 0.00 | 0.00 | 0.00 | 11 | 923.8 |
| 20260503181551 | 68 | 360 | 12.0 | 18.0 | 0.00 | 0.00 | 0.00 | 11 | 923.9 |
| 20260503181012 | 68 | 360 | 11.0 | 18.0 | 0.00 | 0.00 | 0.00 | 12 | 924.0 |
| 20260503180513 | 68 | 360 | 11.0 | 20.0 | 0.00 | 0.00 | 0.00 | 10 | 924.1 |
| 20260503180049 | 68 | 360 | 13.0 | 20.0 | 0.00 | 0.00 | 0.00 | 11 | 924.2 |
| 20260503175512 | 67 | 360 | 8.0 | 19.0 | 0.00 | 0.00 | 0.00 | 12 | 924.1 |
| 20260503175015 | 67 | 360 | 12.0 | 18.0 | 0.00 | 0.00 | 0.00 | 13 | 923.9 |
| 20260503174551 | 66 | 360 | 2.0 | 17.0 | 0.00 | 0.00 | 0.00 | 12 | 924.1 |
| 20260503174019 | 67 | 360 | 13.0 | 20.0 | 0.00 | 0.00 | 0.00 | 12 | 924.0 |
| 20260503173515 | 67 | 360 | 13.0 | 20.0 | 0.00 | 0.00 | 0.00 | 12 | 924.0 |
| 20260503173048 | 66 | 360 | 5.0 | 16.0 | 0.00 | 0.00 | 0.00 | 13 | 924.2 |
| 20260503172517 | 66 | 360 | 7.0 | 19.0 | 0.00 | 0.00 | 0.00 | 13 | 924.2 |
| 20260503172013 | 66 | 360 | 15.0 | 20.0 | 0.00 | 0.00 | 0.00 | 13 | 924.3 |
| 20260503171608 | 65 | 360 | 15.0 | 22.0 | 0.00 | 0.00 | 0.00 | 13 | 924.0 |
| 20260503171013 | 65 | 360 | 9.0 | 22.0 | 0.00 | 0.00 | 0.00 | 13 | 924.2 |
| 20260503170513 | 66 | 360 | 13.0 | 19.0 | 0.00 | 0.00 | 0.00 | 13 | 924.0 |
| 20260503170103 | 65 | 360 | 4.0 | 20.0 | 0.00 | 0.00 | 0.00 | 14 | 924.3 |
| 20260503150513 | 58 | 360 | 13.0 | 16.0 | 0.00 | 0.00 | 0.00 | 30 | 924.8 |
| 20260503131018 | 43 | 360 | 4.0 | 6.0 | 0.00 | 0.00 | 0.00 | 53 | 924.7 |
| 20260503130514 | 43 | 360 | 3.0 | 4.0 | 0.00 | 0.00 | 0.00 | 53 | 924.7 |
| 20260503110512 | 42 | 360 | 5.0 | 6.0 | 0.00 | 0.00 | 0.00 | 59 | 925.1 |
| 20260503090509 | 48 | 360 | 13.0 | 16.0 | 0.00 | 0.00 | 0.00 | 52 | 925.4 |
| 20260503081538 | 48 | 360 | 2.0 | 6.0 | 0.00 | 0.00 | 0.00 | 53 | 926.0 |
| 20260503081010 | 48 | 360 | 3.0 | 5.0 | 0.00 | 0.00 | 0.00 | 53 | 926.1 |
| 20260503080517 | 48 | 360 | 2.0 | 5.0 | 0.00 | 0.00 | 0.00 | 52 | 926.1 |
| 20260503072512 | 48 | 360 | 0.0 | 3.0 | 0.00 | 0.00 | 0.00 | 55 | 926.3 |
| 20260503072012 | 48 | 360 | 0.0 | 5.0 | 0.00 | 0.00 | 0.00 | 55 | 926.3 |
| 20260503071549 | 48 | 360 | 2.0 | 6.0 | 0.00 | 0.00 | 0.00 | 55 | 926.3 |
| 20260503071013 | 48 | 360 | 4.0 | 9.0 | 0.00 | 0.00 | 0.00 | 55 | 926.2 |
| 20260503070511 | 48 | 360 | 5.0 | 11.0 | 0.00 | 0.00 | 0.00 | 54 | 926.1 |
| 20260503055012 | 48 | 360 | 10.0 | 13.0 | 0.00 | 0.00 | 0.00 | 55 | 926.2 |
| 20260503054555 | 48 | 360 | 8.0 | 10.0 | 0.00 | 0.00 | 0.00 | 54 | 926.3 |
| 20260503054010 | 48 | 360 | 4.0 | 6.0 | 0.00 | 0.00 | 0.00 | 54 | 926.4 |
| 20260503053512 | 48 | 360 | 4.0 | 6.0 | 0.00 | 0.00 | 0.00 | 54 | 926.3 |
| 20260503053040 | 48 | 360 | 5.0 | 6.0 | 0.00 | 0.00 | 0.00 | 54 | 926.4 |
| 20260503052513 | 49 | 360 | 5.0 | 6.0 | 0.00 | 0.00 | 0.00 | 54 | 926.3 |
| 20260503052010 | 48 | 360 | 2.0 | 4.0 | 0.00 | 0.00 | 0.00 | 53 | 926.6 |
| 20260503051534 | 49 | 360 | 1.0 | 3.0 | 0.00 | 0.00 | 0.00 | 51 | 926.6 |
| 20260503051011 | 49 | 360 | 1.0 | 6.0 | 0.00 | 0.00 | 0.00 | 50 | 926.5 |
| 20260503050513 | 50 | 360 | 2.0 | 6.0 | 0.00 | 0.00 | 0.00 | 50 | 926.5 |
| 20260503050036 | 50 | 360 | 4.0 | 6.0 | 0.00 | 0.00 | 0.00 | 50 | 926.6 |
| 20260503045510 | 50 | 360 | 4.0 | 8.0 | 0.00 | 0.00 | 0.00 | 49 | 926.5 |
| 20260503045012 | 49 | 360 | 6.0 | 8.0 | 0.00 | 0.00 | 0.00 | 50 | 926.6 |
| 20260503044548 | 48 | 360 | 4.0 | 6.0 | 0.00 | 0.00 | 0.00 | 49 | 926.5 |
| 20260503044011 | 48 | 360 | 4.0 | 6.0 | 0.00 | 0.00 | 0.00 | 48 | 926.6 |
| 20260503043512 | 48 | 360 | 4.0 | 8.0 | 0.00 | 0.00 | 0.00 | 47 | 926.6 |
| 20260503043044 | 49 | 360 | 5.0 | 9.0 | 0.00 | 0.00 | 0.00 | 47 | 926.6 |
| 20260503042511 | 50 | 360 | 5.0 | 9.0 | 0.00 | 0.00 | 0.00 | 45 | 926.7 |
| 20260503042013 | 50 | 360 | 7.0 | 9.0 | 0.00 | 0.00 | 0.00 | 46 | 926.7 |
| 20260503041535 | 51 | 360 | 5.0 | 8.0 | 0.00 | 0.00 | 0.00 | 44 | 926.8 |
| 20260503041011 | 51 | 360 | 3.0 | 5.0 | 0.00 | 0.00 | 0.00 | 43 | 926.8 |
| 20260503040512 | 52 | 360 | 2.0 | 5.0 | 0.00 | 0.00 | 0.00 | 43 | 926.8 |
| 20260503040040 | 52 | 360 | 4.0 | 8.0 | 0.00 | 0.00 | 0.00 | 42 | 926.8 |
| 20260503035509 | 53 | 360 | 6.0 | 8.0 | 0.00 | 0.00 | 0.00 | 42 | 926.7 |
| 20260503035013 | 52 | 360 | 6.0 | 9.0 | 0.00 | 0.00 | 0.00 | 42 | 926.7 |
| 20260503034539 | 52 | 360 | 6.0 | 10.0 | 0.00 | 0.00 | 0.00 | 41 | 926.8 |
| 20260503034011 | 53 | 360 | 8.0 | 10.0 | 0.00 | 0.00 | 0.00 | 42 | 926.7 |
| 20260503033515 | 52 | 360 | 8.0 | 10.0 | 0.00 | 0.00 | 0.00 | 43 | 926.6 |